Flag for Netherlands Weather past 2 weeks in Ede, Netherlands

Now
48 °F

Passing clouds.


Feels Like: 46 °F
Forecast: 50 / 65 °F
Wind: 6 mph from Southwest

Location: Deelen

Current Time: Jul 30, 2015 at 7:03:02 AM

Latest Report: Jul 30, 2015 at 6:25 AM


Visibility: N/A

Pressure: 29.89 "Hg

Humidity: 94%

Dew point: 46 °F

Location of EdeLocation

Historic Weather in Ede — Graph

°F

Ede temperature yesterday

Maximum temperature yesterday: 64 °F (at 2:55 PM)
Minimum temperature yesterday: 50 °F (at 10:25 AM)
Average temperature yesterday: 56 °F

Past Weeks' High & Low Weather Summary

 TemperatureHumidityPressure
High79 °F (Jul 17, 1:25 PM)100% (Jul 15, 5:25 AM)30.12 "Hg (Jul 15, 5:25 AM)
Low46 °F (Jul 26, 4:25 AM)40% (Jul 23, 4:25 PM)29.45 "Hg (Jul 25, 6:25 AM)
Average63 °F79%29.85 "Hg
* Reported Jul 15 5:25 AM — Jul 30 5:25 AM, Ede, Weather by CustomWeather, © 2015

Note: Actual official high and low records may vary slightly from our data, if they occured in-between our weather recording intervals... More about our weather records

Advertising

Ede weather history for previous 24 hours

 ConditionsComfort  
Time TempWeatherWind HumidityBarometerVisibility
5:25 AM
Thu, Jul 30
48 °FPassing clouds.6 mph94%29.89 "HgN/A
4:55 AM48 °FPassing clouds.7 mph94%29.89 "HgN/A
4:25 AM48 °FPassing clouds.7 mph94%29.89 "HgN/A
3:55 AM48 °FPassing clouds.7 mph100%29.89 "HgN/A
3:25 AM50 °FPassing clouds.8 mph94%29.89 "HgN/A
2:55 AM50 °FPassing clouds.7 mph94%29.89 "HgN/A
2:25 AM50 °FPassing clouds.7 mph94%29.89 "HgN/A
1:55 AM50 °FClear.7 mph94%29.89 "HgN/A
1:25 AM50 °FClear.7 mph94%29.89 "HgN/A
12:55 AM52 °FPassing clouds.7 mph88%29.89 "HgN/A
12:25 AM52 °FPassing clouds.7 mph88%29.86 "HgN/A
11:55 PM
Wed, Jul 29
52 °FPassing clouds.8 mph88%29.86 "HgN/A
11:25 PM52 °FClear.8 mph88%29.86 "HgN/A
10:55 PM54 °FClear.7 mph82%29.86 "HgN/A
10:25 PM55 °FSunny.9 mph77%29.86 "HgN/A
9:55 PM57 °FPassing clouds.10 mph72%29.86 "HgN/A
9:25 PM57 °FPassing clouds.12 mph72%29.83 "HgN/A
8:55 PM59 °FScattered clouds.13 mph68%29.83 "HgN/A
8:25 PM59 °FScattered clouds.15 mph63%29.83 "HgN/A
7:55 PM61 °FPassing clouds.17 mph59%29.80 "HgN/A
7:25 PM61 °FBroken clouds.14 mph59%29.80 "HgN/A
6:55 PM61 °FPassing clouds.17 mph63%29.80 "HgN/A
6:25 PM61 °FBroken clouds.14 mph68%29.80 "HgN/A
5:55 PM59 °FBroken clouds.18 mph68%29.77 "HgN/A
5:25 PM61 °FMore clouds than sun.15 mph68%29.77 "HgN/A
4:55 PM61 °FBroken clouds.16 mph68%29.77 "HgN/A
4:25 PM59 °FBroken clouds.16 mph68%29.77 "HgN/A
3:55 PM63 °FScattered clouds.18 mph59%29.74 "HgN/A
3:25 PM61 °FScattered clouds.16 mph68%29.74 "HgN/A
2:55 PM64 °FBroken clouds.17 mph60%29.71 "HgN/A
2:25 PM63 °FScattered clouds.15 mph68%29.71 "HgN/A
1:55 PM61 °FThunderstorms. Fog.16 mph83%29.71 "HgN/A
1:25 PM61 °FThunderstorms. Fog.14 mph77%29.71 "HgN/A
12:55 PM57 °FBroken clouds.13 mph88%29.71 "HgN/A
12:25 PM57 °FBroken clouds.15 mph82%29.71 "HgN/A
11:55 AM55 °FPartly sunny.15 mph88%29.71 "HgN/A
11:25 AM52 °FBroken clouds.13 mph94%29.71 "HgN/A
10:55 AM52 °FBroken clouds.12 mph88%29.71 "HgN/A
10:25 AM50 °FThunderstorms. Fog.14 mph88%29.74 "HgN/A
9:25 AM55 °FPassing clouds.10 mph88%29.71 "HgN/A
8:55 AM54 °FBroken clouds.13 mph88%29.71 "HgN/A
8:25 AM52 °FBroken clouds.15 mph88%29.71 "HgN/A
7:55 AM55 °FBroken clouds.12 mph88%29.71 "HgN/A
7:25 AM54 °FScattered clouds.13 mph94%29.71 "HgN/A
Weather by CustomWeather, © 2015

See weather overviewHow to use our weather pages